Sign In / Sign Up
 
 
Long Long Journey Regatta. Leg 93. 19/10 - 25/10



Race Date (UTC) # I place II place III place Track
Race2455 2020-10-24 17:44:55 2 Karmar Y.C. Tempio Pausania
Race2454 2020-10-24 17:41:42 8 °oOo° speedy Indefensible
Race2453 2020-10-24 17:40:23 8 HuoDo StorM JOY
Race2452 2020-10-24 17:37:07 8 revenge Indefensible Whammer Jammer
Race2451 2020-10-24 17:33:24 7 Red Pepper star6546 getnair
Race2450 2020-10-24 17:32:19 3 alta tensione op200 mop100
Race2449 2020-10-24 17:29:31 8 JOY Indefensible UpYers
Race2448 2020-10-24 17:26:53 2 Y.C. Tempio Pausania yuppydu
Race2447 2020-10-24 17:25:06 2 op200 mop100
Race2446 2020-10-24 17:22:51 8 Mi barco Whammer Jammer Start100
Race2445 2020-10-24 17:19:03 7 JOY LaTota HuoDo
Race2444 2020-10-24 17:16:37 8 Mi barco I.G.N ITA 77
Race2443 2020-10-24 17:14:28 4 gangbang Y.C. Tempio Pausania LaTota
Race2442 2020-10-24 17:13:14 2 Attilio gangbang
Race2441 2020-10-24 17:11:30 3 yuppydu Eydenet Mi barco
Race2440 2020-10-24 17:09:50 8 ONO Ведя Киев Кот~Баюн
Race2439 2020-10-24 17:07:43 5 Y.C. Tempio Pausania LaTota Karmar
Race2438 2020-10-24 17:04:54 3 ONO Ведя Киев 🤪🤨🤓😈
Race2437 2020-10-24 17:02:33 3 Mi barco Y.C. Tempio Pausania 🤪🤨🤓😈
Race2436 2020-10-24 17:00:17 8 LaTota Dannato Sardynia
Race2435 2020-10-24 16:57:14 2 Jeeeeaaaaaa Just A Hare
Race2434 2020-10-24 16:55:15 8 HuoDo Mi barco LaTota
Race2433 2020-10-24 16:51:48 7 Arrogante Ведя Киев Guillemot
Race2432 2020-10-24 16:49:46 3 ././ ONO Ilyfe
Race2431 2020-10-24 16:47:58 8 Mi barco LaTota Norman
Race2430 2020-10-24 16:45:41 5 gangbang Ведя Киев Guillemot
Race2429 2020-10-24 16:42:03 5 Mi barco star6546 Ilyfe
Race2428 2020-10-24 16:39:19 8 gangbang Arrogante Stargazer
Race2427 2020-10-24 16:35:53 5 Sardynia Petsunder star6546
Race2426 2020-10-24 16:32:55 6 Y.C. Tempio Pausania LaTota Mi barco
Race2425 2020-10-24 16:31:32 3 mikycambie Enjoy Blu op200
Race2424 2020-10-24 16:29:33 2 gangbang op200
Race2423 2020-10-24 16:27:41 4 scarsoooo LaTota Arrogante
Race2422 2020-10-24 16:25:15 8 Ahhhhhhhhhhhhhhhhhhhhh Y.C. Tempio Pausania star6546
Race2421 2020-10-24 16:23:52 2 gangbang Tornado ITA-257
Race2420 2020-10-24 16:22:02 8 Sardynia Dannato yuppydu
Race2419 2020-10-24 16:20:41 7 scarsoooo Ahhhhhhhhhhhhhhhhhhhhh kemanigumbs
Race2418 2020-10-24 16:16:36 8 Orzaiolo Oreste LaTota
Race2417 2020-10-24 16:15:09 5 gangbang scarsoooo Ahhhhhhhhhhhhhhhhhhhhh
Race2416 2020-10-24 16:13:42 2 yuppydu axel1
Race2415 2020-10-24 16:12:31 6 Orzaiolo revenge ventomareiro
Race2414 2020-10-24 16:10:59 2 ventomareiro kemanigumbs
Race2413 2020-10-24 16:07:19 8 Sardynia gangbang Rantott H
Race2412 2020-10-24 16:04:51 8 Neo yuppydu Apollo
Race2411 2020-10-24 16:01:01 2 gangbang getnair
Race2410 2020-10-24 15:59:03 8 goran Dannato Feten Zia
Race2409 2020-10-24 15:56:57 8 PESCARA2 Neo volosko
Race2408 2020-10-24 15:55:27 8 gangbang Sardynia Argonaftis
Race2407 2020-10-24 15:54:55 8 BORA RN goran LaTota
Race2406 2020-10-24 15:53:23 2 Oreste mikycambie
Race2405 2020-10-24 15:52:17 8 Neo Mana I.G.N
Race2404 2020-10-24 15:47:31 8 PESCARA2 goran LaTota
Race2403 2020-10-24 15:45:43 8 Mana Dannato Orzaiolo
Race2402 2020-10-24 15:42:28 8 Neo yuppydu BORA RN
Race2401 2020-10-24 15:41:36 2 Mana AquA
Race2400 2020-10-24 15:39:31 3 peperoneverde BBMP Boat Axen
Race2399 2020-10-24 15:35:50 2 LaTota Ipso
Race2398 2020-10-24 15:33:31 3 yuppydu nessuno 1955 BBMP Boat
Race2397 2020-10-24 15:27:52 7 Libeccio 313 BORA RN
Race2396 2020-10-24 15:26:01 8 PESCARA2 nessuno 1955 Polina
Race2395 2020-10-24 15:23:20 8 Libeccio star6546 MANARA
Race2394 2020-10-24 15:21:06 8 Polina Old Blue Eyes LaTota
Race2393 2020-10-24 15:17:35 7 Libeccio MANARA LENA BI
Race2392 2020-10-24 15:13:39 8 nessuno 1955 Old Blue Eyes Кот~Баюн
Race2391 2020-10-24 15:12:51 3 Ar Vag 2 Joe Joe Ipso
Race2390 2020-10-24 15:11:36 2 zioclodey Ipso
Race2389 2020-10-24 15:09:35 6 Sbando yuppydu Libeccio
Race2388 2020-10-24 15:06:47 5 UpYers bogablu Ipso
Race2387 2020-10-24 15:05:05 3 zioclodey Ar Vag 2 BBMP Boat
Race2386 2020-10-24 15:03:10 8 Lazy Old Blue Eyes Libeccio
Race2385 2020-10-24 15:02:17 2 bogablu expresso
Race2384 2020-10-24 15:01:25 8 StorM UpYers HuoDo
Race2383 2020-10-24 14:58:12 5 pippo Libeccio zioclodey
Race2382 2020-10-24 14:56:42 2 yuppydu 🤪🤨🤓😈
Race2381 2020-10-24 14:54:43 8 PESCARA2 Start100 Old Blue Eyes
Race2380 2020-10-24 14:51:04 8 zioclodey TATAN II Jeeeeaaaaaa
Race2379 2020-10-24 14:50:31 2 Jeeeeaaaaaa Kiss the Sphinx
Race2378 2020-10-24 14:49:43 8 PESCARA2 yuppydu Start100
Race2377 2020-10-24 14:48:01 3 yardage expresso mikycambie
Race2376 2020-10-24 14:46:26 4 pippo Ar Vag 2 Guillemot
Race2375 2020-10-24 14:42:13 8 PESCARA2 yuppydu HuoDo
Race2374 2020-10-24 14:39:31 3 Кот~Баюн pippo Guillemot
Race2373 2020-10-24 14:37:30 2 pippo Old Blue Eyes
Race2372 2020-10-24 14:33:27 8 Ohsnap No respect. yuppydu
Race2371 2020-10-24 14:31:02 8 Мираж getnair pokey
Race2370 2020-10-24 14:29:44 3 mariemonti zed Polina
Race2369 2020-10-24 14:26:00 8 PESCARA2 No respect. torsboat
Race2368 2020-10-24 14:21:56 8 Libeccio Alacrity Polina
Race2367 2020-10-24 14:18:46 3 poskocna baba No respect. Ужур
Race2366 2020-10-24 14:14:04 8 PESCARA2 Libeccio pokey
Race2365 2020-10-24 14:12:58 2 mikycambie PulceAcquatica
Race2364 2020-10-24 14:10:38 8 poskocna baba Alacrity Libeccio
Race2363 2020-10-24 14:09:36 2 poskocna baba bagnarola
Race2362 2020-10-24 14:07:27 4 zed Ведя Киев mariemonti
Race2361 2020-10-24 14:03:52 7 POLICE Mana Libeccio
Race2360 2020-10-24 14:02:53 2 NBA mariemonti
Race2359 2020-10-24 14:01:55 3 poskocna baba zed Libeccio
Race2358 2020-10-24 13:58:31 4 Alacrity sy unknown pokey
Race2357 2020-10-24 13:56:59 2 NBA mariemonti
Race2356 2020-10-24 13:52:34 8 POLICE poskocna baba zed